TSC675 CYQM-CYHZ

Flight info

Callsign TSC675
Flight time 0h 28m
Altitude 15000
Route DCT LOKRI MINAS1
Aircraft A321/M-V/N

Departure

Time 2026-04-24 15:54
Airport Greater Moncton Roméo LeBlanc International Airport (CYQM)

Arrival

Time 2026-04-24 16:23
Airport Halifax / Stanfield International Airport (CYHZ)
Time Latitude Longitude Altitude Speed Heading
2026-04-24 15:33 46.11587 -64.68724 211 ft 0 kts 316°
2026-04-24 15:45 46.11583 -64.68720 198 ft 3 kts 316°
2026-04-24 15:46 46.11570 -64.68701 211 ft 3 kts 316°
2026-04-24 15:46 46.11556 -64.68683 204 ft 3 kts 316°
2026-04-24 15:46 46.11543 -64.68663 210 ft 3 kts 284°
2026-04-24 15:46 46.11544 -64.68637 212 ft 3 kts 223°
2026-04-24 15:47 46.11550 -64.68629 213 ft 0 kts 195°
2026-04-24 15:49 46.11526 -64.68639 207 ft 8 kts 196°
2026-04-24 15:49 46.11471 -64.68659 208 ft 8 kts 192°
2026-04-24 15:49 46.11411 -64.68659 208 ft 8 kts 164°
2026-04-24 15:50 46.11368 -64.68612 207 ft 9 kts 133°
2026-04-24 15:50 46.11323 -64.68555 212 ft 8 kts 154°
2026-04-24 15:50 46.11260 -64.68567 208 ft 12 kts 208°
2026-04-24 15:50 46.11198 -64.68641 204 ft 11 kts 222°
2026-04-24 15:51 46.11133 -64.68727 209 ft 15 kts 223°
2026-04-24 15:51 46.11061 -64.68822 205 ft 13 kts 222°
2026-04-24 15:51 46.11001 -64.68900 206 ft 11 kts 222°
2026-04-24 15:51 46.10938 -64.68983 208 ft 14 kts 222°
2026-04-24 15:52 46.10876 -64.69064 209 ft 11 kts 222°
2026-04-24 15:52 46.10809 -64.69152 213 ft 14 kts 222°
2026-04-24 15:52 46.10741 -64.69241 211 ft 12 kts 222°
2026-04-24 15:52 46.10687 -64.69319 209 ft 11 kts 230°
2026-04-24 15:53 46.10647 -64.69406 213 ft 11 kts 237°
2026-04-24 15:53 46.10616 -64.69388 217 ft 7 kts 62°
2026-04-24 15:53 46.10649 -64.69360 209 ft 6 kts 38°
2026-04-24 15:53 46.10783 -64.69186 211 ft 59 kts 42°
2026-04-24 15:54 46.11251 -64.68569 212 ft 120 kts 43°
2026-04-24 15:54 46.11988 -64.67604 242 ft 161 kts 42°
2026-04-24 15:54 46.12825 -64.66529 879 ft 161 kts 41°
2026-04-24 15:54 46.13623 -64.65420 1674 ft 159 kts 44°
2026-04-24 15:55 46.14409 -64.64270 2242 ft 167 kts 44°
2026-04-24 15:55 46.15278 -64.63001 2515 ft 188 kts 45°
2026-04-24 15:55 46.16257 -64.61580 2726 ft 212 kts 45°
2026-04-24 15:55 46.17361 -64.59978 3090 ft 235 kts 45°
2026-04-24 15:56 46.18345 -64.58057 3842 ft 244 kts 68°
2026-04-24 15:56 46.18563 -64.55620 4740 ft 252 kts 96°
2026-04-24 15:56 46.17897 -64.53251 5564 ft 262 kts 126°
2026-04-24 15:56 46.16510 -64.51590 6369 ft 269 kts 155°
2026-04-24 15:57 46.14674 -64.51021 7127 ft 274 kts 184°
2026-04-24 15:57 46.12785 -64.51433 7986 ft 275 kts 193°
2026-04-24 15:57 46.10908 -64.52016 8893 ft 277 kts 193°
2026-04-24 15:57 46.09020 -64.52624 9777 ft 279 kts 194°
2026-04-24 15:58 46.07096 -64.53244 10329 ft 293 kts 194°
2026-04-24 15:58 46.05023 -64.53918 10566 ft 317 kts 193°
2026-04-24 15:58 46.02797 -64.54656 10797 ft 339 kts 193°
2026-04-24 15:58 46.00464 -64.55436 11371 ft 348 kts 193°
2026-04-24 15:59 45.98082 -64.56239 12084 ft 354 kts 193°
2026-04-24 15:59 45.95663 -64.57069 12802 ft 360 kts 193°
2026-04-24 15:59 45.93203 -64.57923 13495 ft 367 kts 193°
2026-04-24 15:59 45.90703 -64.58800 14150 ft 372 kts 194°
2026-04-24 16:00 45.88169 -64.59693 14751 ft 378 kts 193°
2026-04-24 16:00 45.85609 -64.60594 14952 ft 379 kts 194°
2026-04-24 16:00 45.83048 -64.61496 15001 ft 380 kts 194°
2026-04-24 16:00 45.80485 -64.62399 15003 ft 379 kts 194°
2026-04-24 16:01 45.77926 -64.63299 15002 ft 380 kts 194°
2026-04-24 16:01 45.75360 -64.64200 14999 ft 379 kts 194°
2026-04-24 16:01 45.72795 -64.65083 15001 ft 379 kts 194°
2026-04-24 16:01 45.70226 -64.65953 15001 ft 380 kts 193°
2026-04-24 16:02 45.67661 -64.66823 15001 ft 379 kts 194°
2026-04-24 16:02 45.65091 -64.67693 15001 ft 379 kts 194°
2026-04-24 16:02 45.62525 -64.68564 15001 ft 378 kts 194°
2026-04-24 16:02 45.59965 -64.69431 14995 ft 378 kts 194°
2026-04-24 16:03 45.57405 -64.70298 14989 ft 378 kts 194°
2026-04-24 16:03 45.54842 -64.71166 14987 ft 379 kts 194°
2026-04-24 16:03 45.52276 -64.72026 15000 ft 378 kts 194°
2026-04-24 16:03 45.49707 -64.72755 15029 ft 372 kts 185°
2026-04-24 16:04 45.47191 -64.72555 14994 ft 356 kts 167°
2026-04-24 16:04 45.44923 -64.71356 14868 ft 343 kts 151°
2026-04-24 16:04 45.43062 -64.69355 14719 ft 326 kts 135°
2026-04-24 16:04 45.41526 -64.67070 14405 ft 316 kts 134°
2026-04-24 16:05 45.38564 -64.62648 13930 ft 309 kts 134°
2026-04-24 16:05 45.37082 -64.60438 13680 ft 307 kts 134°
2026-04-24 16:06 45.34132 -64.56043 13112 ft 308 kts 135°
2026-04-24 16:06 45.32656 -64.53850 12833 ft 306 kts 134°
2026-04-24 16:06 45.29725 -64.49495 12283 ft 303 kts 134°
2026-04-24 16:07 45.28274 -64.47343 12006 ft 300 kts 134°
2026-04-24 16:07 45.26832 -64.45204 11744 ft 299 kts 134°
2026-04-24 16:07 45.23973 -64.40965 11202 ft 296 kts 134°
2026-04-24 16:08 45.22547 -64.38854 10929 ft 296 kts 134°
2026-04-24 16:08 45.19713 -64.34671 10427 ft 291 kts 134°
2026-04-24 16:09 45.16917 -64.30546 9940 ft 289 kts 134°
2026-04-24 16:09 45.15527 -64.28493 9814 ft 289 kts 133°
2026-04-24 16:09 45.14601 -64.27127 9730 ft 291 kts 133°
2026-04-24 16:09 45.12723 -64.24362 9544 ft 290 kts 133°
2026-04-24 16:10 45.08539 -64.18219 9117 ft 285 kts 134°
2026-04-24 16:11 45.05822 -64.14230 8838 ft 273 kts 134°
2026-04-24 16:11 45.04532 -64.12341 8678 ft 262 kts 134°
2026-04-24 16:11 45.03291 -64.10522 8555 ft 253 kts 134°
2026-04-24 16:12 45.00850 -64.06951 8274 ft 252 kts 134°
2026-04-24 16:12 44.99632 -64.05172 8148 ft 252 kts 134°
2026-04-24 16:12 44.97196 -64.01622 7876 ft 251 kts 134°
2026-04-24 16:13 44.95978 -63.99853 7739 ft 251 kts 134°
2026-04-24 16:13 44.93549 -63.96321 7480 ft 250 kts 133°
2026-04-24 16:14 44.91136 -63.92807 7213 ft 248 kts 133°
2026-04-24 16:14 44.89951 -63.91085 7081 ft 248 kts 133°
2026-04-24 16:14 44.87536 -63.87579 6731 ft 248 kts 133°
2026-04-24 16:15 44.86742 -63.86427 6524 ft 246 kts 133°
2026-04-24 16:15 44.83980 -63.82427 5540 ft 244 kts 132°
2026-04-24 16:16 44.81631 -63.79027 4739 ft 240 kts 132°
2026-04-24 16:16 44.80473 -63.77349 4336 ft 238 kts 131°
2026-04-24 16:17 44.77199 -63.72631 4012 ft 209 kts 131°
2026-04-24 16:17 44.75331 -63.69947 3837 ft 177 kts 131°
2026-04-24 16:18 44.74300 -63.67106 3693 ft 161 kts 88°
2026-04-24 16:18 44.74978 -63.64279 3315 ft 150 kts 45°
2026-04-24 16:18 44.75774 -63.63355 3096 ft 148 kts 33°
2026-04-24 16:19 44.77467 -63.61693 2657 ft 148 kts 33°
2026-04-24 16:19 44.78303 -63.60867 2448 ft 147 kts 33°
2026-04-24 16:20 44.79977 -63.59219 2036 ft 146 kts 33°
2026-04-24 16:20 44.81349 -63.57868 1727 ft 138 kts 33°
2026-04-24 16:20 44.82120 -63.57109 1523 ft 136 kts 33°
2026-04-24 16:21 44.83652 -63.55599 1139 ft 133 kts 33°
2026-04-24 16:21 44.84419 -63.54845 951 ft 134 kts 34°
2026-04-24 16:21 44.85187 -63.54093 786 ft 133 kts 35°
2026-04-24 16:22 44.85949 -63.53350 627 ft 133 kts 36°
2026-04-24 16:22 44.87410 -63.51893 448 ft 109 kts 35°
2026-04-24 16:22 44.87862 -63.51444 451 ft 53 kts 35°
2026-04-24 16:23 44.88100 -63.51208 448 ft 38 kts 34°
2026-04-24 16:23 44.88263 -63.51051 449 ft 17 kts 31°
2026-04-24 16:23 44.88338 -63.51059 450 ft 8 kts 314°
2026-04-24 16:24 44.88399 -63.51173 450 ft 11 kts 316°
2026-04-24 16:24 44.88468 -63.51206 452 ft 11 kts 349°
2026-04-24 16:24 44.88540 -63.51223 452 ft 10 kts 351°
2026-04-24 16:24 44.88608 -63.51240 452 ft 10 kts 349°
2026-04-24 16:25 44.88649 -63.51268 452 ft 3 kts 296°
2026-04-24 16:25 44.88650 -63.51304 452 ft 5 kts 264°
2026-04-24 16:25 44.88645 -63.51345 452 ft 4 kts 260°
2026-04-24 16:26 44.88643 -63.51364 452 ft 0 kts 260°